This demonstration page uses our WeatherBlox Daily Observations layout. Learn more.

Left ArrowRight Arrow

Hourly Observations for July 5, 2022

Temp ( °F °C ) Dew Point ( °F °C ) Humidity (%) Winds ( mph kmh ) Pressure ( in mb ) Visibility ( mi km ) Precip ( " mm )
12:15 am 00:15 Clear 80 26.7 65 18.3 60 60 S 12 19 29.73 1007 10 16 0.00 0.00
12:35 am 00:35 Clear 80 26.6 65 18.4 61 61 S 10 17 29.73 1007 10 16 0.00 0.00
12:55 am 00:55 Clear 80 26.6 65 18.5 61 61 S 9 15 29.73 1007 10 16 0.00 0.00
1:15 am 01:15 Clear 79 26.3 66 18.7 63 63 S 9 15 29.74 1007 10 16 0.00 0.00
1:35 am 01:35 Clear 78 25.7 66 19 67 67 S 10 17 29.74 1007 10 16 0.00 0.00
1:55 am 01:55 Clear 79 26.3 66 18.7 63 63 S 14 22 29.73 1007 10 16 0.00 0.00
2:15 am 02:15 Partly Cloudy 79 26.1 66 19 65 65 S 10 17 29.74 1007 10 16 0.00 0.00
2:35 am 02:35 Clear with Drizzle 79 25.9 66 19.1 66 66 S 24 39 29.72 1006 10 16 0.00 0.00
2:55 am 02:55 Mostly Cloudy with Nearby Thunderstorms 79 26 66 19 65 65 S 12 19 29.74 1007 10 16 0.00 0.00
3:15 am 03:15 Partly Cloudy with Nearby Thunderstorms 78 25.7 66 19 67 67 SSW 7 11 29.76 1008 10 16 0.00 0.00
3:35 am 03:35 Partly Cloudy 77 25.2 67 19.5 71 71 SW 9 15 29.77 1008 10 16 0.00 0.00
3:55 am 03:55 Mostly Cloudy with Rain 77 24.8 67 19.6 73 73 SSW 15 24 29.75 1007 10 16 0.01 0.25
4:15 am 04:15 Mostly Cloudy with Drizzle 74 23.6 68 20 80 80 SSW 14 22 29.77 1008 10 16 0.00 0.00
4:35 am 04:35 Cloudy with Light Rain 75 23.8 68 20.2 80 80 WSW 7 11 29.79 1009 10 16 0.00 0.00
4:55 am 04:55 Cloudy with Light Rain 74 23.3 69 20.3 83 83 W 5 7 29.79 1009 10 16 0.01 0.25
5:15 am 05:15 Cloudy with Light Rain 74 23.2 69 20.6 85 85 S 5 7 29.78 1009 10 16 0.00 0.00
5:35 am 05:35 Mostly Cloudy with Rain 73 22.7 69 20.8 89 89 S 5 7 29.79 1009 10 16 0.00 0.00
5:55 am 05:55 Partly Cloudy with Light Rain 73 22.6 69 20.7 89 89 S 7 11 29.79 1009 10 16 0.00 0.00
6:15 am 06:15 Sunny 74 23.3 68 20.1 82 82 S 5 7 29.77 1008 10 16 0.00 0.00
6:35 am 06:35 Sunny 74 23.3 67 19.7 80 80 SE 7 11 29.75 1007 10 16 0.00 0.00
6:55 am 06:55 Mostly Cloudy 73 22.9 68 20 84 84 SE 9 15 29.74 1007 10 16 0.00 0.00
7:15 am 07:15 Partly Cloudy 73 22.9 67 19.6 82 82 S 10 17 29.74 1007 10 16 0.00 0.00
7:35 am 07:35 Sunny 74 23.3 67 19.3 78 78 S 8 13 29.75 1007 10 16 0.00 0.00
7:55 am 07:55 Sunny 74 23.6 67 19.4 77 77 S 7 11 29.75 1007 10 16 0.00 0.00
8:15 am 08:15 Sunny 75 24 67 19.7 77 77 ESE 9 15 29.77 1008 10 16 0.00 0.00
8:35 am 08:35 Sunny 75 24.1 68 19.8 77 77 E 12 19 29.77 1008 10 16 0.01 0.25
8:55 am 08:55 Sunny 75 24.1 68 20.2 79 79 ESE 6 9 29.77 1008 10 16 0.01 0.25
9:15 am 09:15 Sunny 77 24.8 68 19.8 74 74 ESE 13 20 29.76 1008 10 16 0.00 0.00
9:35 am 09:35 Sunny 77 24.8 68 19.8 74 74 ESE 10 17 29.75 1007 10 16 0.00 0.00
9:55 am 09:55 Sunny 77 24.8 68 19.9 74 74 ESE 8 13 29.75 1007 10 16 0.00 0.00
10:15 am 10:15 Sunny 79 26.1 68 19.8 68 68 SE 12 19 29.74 1007 10 16 0.00 0.00
10:35 am 10:35 Sunny 81 27 68 20.1 66 66 SSE 13 20 29.73 1007 10 16 0.00 0.00
10:55 am 10:55 Sunny 81 27.4 68 20.1 64 64 SE 12 19 29.73 1007 10 16 0.00 0.00
11:15 am 11:15 Sunny 83 28.2 69 20.4 63 63 SSE 9 15 29.73 1007 10 16 0.00 0.00
11:35 am 11:35 Sunny 83 28.5 67 19.3 57 57 SSE 10 17 29.73 1007 10 16 0.00 0.00
11:55 am 11:55 Sunny 84 28.7 66 18.7 55 55 S 8 13 29.72 1006 10 16 0.00 0.00
12:15 pm 12:15 Sunny 85 29.2 67 19.3 55 55 SSE 10 17 29.71 1006 10 16 0.00 0.00
12:35 pm 12:35 Sunny 86 30.1 67 19.7 54 54 SSE 12 19 29.71 1006 10 16 0.00 0.00
12:55 pm 12:55 Sunny 88 31 67 19.5 50 50 SSE 13 20 29.70 1006 10 16 0.00 0.00
1:15 pm 13:15 Sunny 88 31.2 66 19 48 48 SSE 12 19 29.70 1006 10 16 0.00 0.00
1:35 pm 13:35 Sunny 89 31.7 66 19 47 47 SSE 15 24 29.69 1005 10 16 0.00 0.00
1:55 pm 13:55 Sunny 90 32.3 67 19.5 47 47 SSE 12 19 29.68 1005 10 16 0.00 0.00
2:15 pm 14:15 Sunny 91 32.8 68 19.9 47 47 SE 12 19 29.68 1005 10 16 0.00 0.00
2:35 pm 14:35 Sunny 92 33.6 69 20.6 46 46 SSE 9 15 29.66 1004 10 16 0.00 0.00
2:55 pm 14:55 Sunny 94 34.2 69 20.3 44 44 SSE 12 19 29.65 1004 10 16 0.00 0.00
3:15 pm 15:15 Sunny 94 34.5 68 20 43 43 SSE 12 19 29.63 1004 10 16 0.00 0.00
3:35 pm 15:35 Sunny 94 34.7 69 20.5 43 43 SSE 10 17 29.63 1003 10 16 0.00 0.00
3:55 pm 15:55 Sunny 95 34.8 68 20 42 42 SSE 10 17 29.62 1003 10 16 0.00 0.00
4:15 pm 16:15 Sunny 95 35 69 20.8 43 43 SSE 8 13 29.61 1003 10 16 0.00 0.00
4:35 pm 16:35 Sunny 96 35.3 70 21.1 44 44 SSE 7 11 29.61 1003 10 16 0.00 0.00
4:55 pm 16:55 Sunny 95 35.2 69 20.6 42 42 S 8 13 29.61 1003 10 16 0.00 0.00
5:15 pm 17:15 Sunny 95 35.2 70 20.9 43 43 S 6 9 29.60 1002 10 16 0.00 0.00
5:35 pm 17:35 Sunny 96 35.3 69 20.7 42 42 SE 6 9 29.61 1003 10 16 0.00 0.00
5:55 pm 17:55 Sunny 96 35.4 70 21.2 44 44 ESE 6 9 29.60 1002 10 16 0.00 0.00
6:15 pm 18:15 Sunny 95 35.1 72 22 47 47 E 8 13 29.59 1002 10 16 0.00 0.00
6:35 pm 18:35 Sunny 94 34.7 71 21.9 47 47 E 8 13 29.59 1002 10 16 0.00 0.00
6:55 pm 18:55 Sunny 93 34 73 22.7 52 52 ENE 10 17 29.59 1002 10 16 0.00 0.00
7:15 pm 19:15 Sunny 89 31.9 75 23.8 62 62 NE 10 17 29.61 1003 10 16 0.00 0.00
7:35 pm 19:35 Sunny 87 30.3 72 22.4 63 63 NE 20 31 29.65 1004 10 16 0.00 0.00
7:55 pm 19:55 Sunny 81 27.1 69 20.6 68 68 NE 17 28 29.67 1005 10 16 0.00 0.00
8:15 pm 20:15 Sunny with Nearby Thunderstorms 79 26.2 69 20.3 70 70 NE 18 30 29.66 1004 10 16 0.00 0.00
8:35 pm 20:35 Mostly Cloudy with Strong Thunderstorms 71 21.6 68 19.8 90 90 S 31 50 29.79 1009 2 3 0.16 4.06
8:55 pm 20:55 Cloudy with Strong Thunderstorms 71 21.9 67 19.2 85 85 W 12 19 29.80 1009 3 5 0.58 14.73
9:15 pm 21:15 Mostly Cloudy 73 22.6 68 20 85 85 Calm 29.80 1009 10 16 0.03 0.76
9:35 pm 21:35 Partly Cloudy with Thunderstorms 74 23.6 67 19.7 79 79 SW 7 11 29.79 1009 10 16 0.03 0.76
9:55 pm 21:55 Mostly Cloudy with Light Rain 73 22.7 69 20.6 88 88 ENE 13 20 29.78 1008 10 16 0.03 0.76
10:15 pm 22:15 Cloudy with Light Rain 73 22.6 70 20.9 90 90 Calm 29.79 1009 10 16 0.02 0.51
10:35 pm 22:35 Cloudy with Nearby Thunderstorms 73 22.9 69 20.6 87 87 ESE 10 17 29.83 1010 10 16 0.03 0.76
10:55 pm 22:55 Cloudy with Nearby Thunderstorms 72 22.1 68 19.9 87 87 E 20 31 29.83 1010 5 8 0.29 7.37
11:15 pm 23:15 Cloudy with Light Rain 70 21.1 68 19.9 93 93 E 15 24 29.84 1010 5 8 0.12 3.05
11:35 pm 23:35 Cloudy 70 21.3 67 19.3 88 88 E 14 22 29.81 1009 10 16 0.12 3.05
11:55 pm 23:55 Cloudy 71 21.5 64 17.9 80 80 E 20 31 29.81 1009 10 16 0.12 3.05

Powered by AerisWeather